COSMOS 1275 DEB, 12699

Orbit data source: Space-Track

COSMOS 1275 DEB, 12699 is space debris in LEO originally from a launch on Thu, 04 Jun 1981 UTC launched from the Plesetsk Missile And Space Complex (PKMTR). Debris objects in space refer to the collection of defunct objects orbiting the Earth. Examples of debris include non-operational satellites, rocket bodies, and fragments generated from explosions, collisions, or faulty payload assembly.

Loading next visibility...
Identifier
12699, 1981-053AT
Orbit
LEO
Country
Flag of CISCIS
Related business
Manufacturer
Unknown
Mission
Spacecraft
Bus & Motor
Unknown
Mass
Unknown
Launch date (UTC)
1981-06-04 (45 years ago)
Launch vehicle
Unknown
Launch site
Plesetsk Missile And Space Complex (PKMTR)
Object type
Payload
Rocket body
Debris
Shape & HBR
Unknown shape, 0.1 m
Radar Cross Section
Small (<0.1 m²)

Expand to show TLE details & history
Last TLE update: 18 hours ago

TLE from 18 hours ago
0 COSMOS 1275 DEB
1 12699U 81053AT  26034.10623463  .00001044  00000-0  89490-3 0  9996
2 12699  82.9442  66.5177 0086601  84.2271 331.8554 13.84232639226443
Epoch: 2026-02-03T02:32Z
TLE epoch observation values (Epoch: 2026-02-03T02:32:58.672Z)
Latitude
55.07952°
Longitude
-94.86099°
Altitude
902.197 km
Speed
7.434 km/s
True Right ascension
05h 06m 42s
True Declination
54° 55' 16"
Sunlit
Object was in full shadow at epoch
Visualization orbit readout
Latitude
Unknown
Longitude
Unknown
Altitude
Unknown
Speed
Unknown
Apparent Right ascension
Unknown
Apparent Declination
Unknown
Sunlit
N/A
Visualization observer readout
Local Sidereal Time
22:37:04
Azimuth
Unknown
Elevation
Unknown
Doppler factor
Unknown
Orbital elements
Apogee altitude
1,009.476 km
Perigee altitude
882.62 km
Semi-major axis
7,324.185 km
Eccentricity
0.00866
Inclination
82.9442°
RAAN
66.5177°
Arg. of periapsis
84.2271°
True anomaly
331.38279°
Mean anomaly
331.8554°
Eccentric anomaly
331.61955°
Mean motion
3.46262 °/min
Orbital period
103.97 mins
BSTAR
0.0008949
Loading maneuver chart data...
Computing Atmospheric mass density...

Documentation

Showing up to 5 results
|